{"data":{"norad_id":64700,"epoch":"2026-09-20T17:10:27.122880Z","epoch_age_seconds":108993,"freshness":"FRESH","line1":"1 64700U 25142E   26263.71559170 -.00032538  00000+0 -11348-2 0  9996","line2":"2 64700  70.0008 180.3131 0002664 261.2115  98.8758 15.29510947 68717","mean_motion":15.29510947,"eccentricity":0.0002664,"inclination_deg":70.0008,"raan_deg":180.3131,"arg_perigee_deg":261.2115,"mean_anomaly_deg":98.8758,"bstar":-0.0011348,"rev_number":6871,"period_min":94.147740676484,"perigee_km":475.4469485379,"apogee_km":479.09951110835,"semimajor_km":6855.4102298231,"source":"CELESTRAK","updated_at":"2026-09-21T09:00:35.403500Z"}}